N6GIW Weather Reports


Display with metric or nautical units.
time (UTC)temp
F
wind
direction
speed
MPH
gust
MPH
rain 1hr
in
rain 24hr
in
rain mn
in
humidity
%
barometer
mb
20260503014505 80 194 7.0 15.0 0.00 0.00 0.00 14 1018.8
20260503014004 80 200 9.0 13.0 0.00 0.00 0.00 14 1018.8
20260503013504 80 200 10.0 14.0 0.00 0.00 0.00 14 1018.8
20260503013004 81 183 9.0 16.0 0.00 0.00 0.00 14 1018.9
20260503012503 81 196 7.0 16.0 0.00 0.00 0.00 13 1018.8
20260503012003 81 198 9.0 16.0 0.00 0.00 0.00 13 1018.8
20260503011504 81 177 9.0 17.0 0.00 0.00 0.00 13 1018.8
20260503011004 82 173 9.0 14.0 0.00 0.00 0.00 13 1018.8
20260503010504 82 160 10.0 17.0 0.00 0.00 0.00 13 1018.8
20260503010004 82 168 9.0 20.0 0.00 0.00 0.00 13 1018.8
20260503005504 82 184 7.0 17.0 0.00 0.00 0.00 13 1018.7
20260503005003 82 165 5.0 15.0 0.00 0.00 0.00 13 1019.1
20260503003503 83 193 10.0 16.0 0.00 0.00 0.00 13 1018.9
20260503003003 83 193 8.0 16.0 0.00 0.00 0.00 13 1018.9
20260503002004 83 205 7.0 13.0 0.00 0.00 0.00 13 1019.0
20260503001003 83 188 7.0 15.0 0.00 0.00 0.00 12 1019.0
20260503000504 83 174 7.0 12.0 0.00 0.00 0.00 12 1019.0
20260503000003 84 164 7.0 14.0 0.00 0.00 0.00 12 1019.0
20260502235504 84 184 9.0 17.0 0.00 0.00 0.00 12 1019.0
20260502235003 84 213 3.0 10.0 0.00 0.00 0.00 11 1019.0
20260502234504 84 220 5.0 10.0 0.00 0.00 0.00 11 1019.1
20260502234005 84 188 8.0 14.0 0.00 0.00 0.00 11 1019.0
20260502233504 85 190 11.0 17.0 0.00 0.00 0.00 11 1019.1
20260502233004 84 176 6.0 14.0 0.00 0.00 0.00 11 1019.2
20260502232504 84 343 2.0 3.0 0.00 0.00 0.00 11 1019.2
20260502231504 84 183 3.0 8.0 0.00 0.00 0.00 10 1019.3
20260502230504 85 109 3.0 10.0 0.00 0.00 0.00 9 1019.3
20260502230004 85 105 7.0 12.0 0.00 0.00 0.00 9 1019.4
20260502225503 85 112 9.0 13.0 0.00 0.00 0.00 9 1019.5
20260502224504 85 94 3.0 9.0 0.00 0.00 0.00 9 1019.6
20260502224003 85 99 7.0 12.0 0.00 0.00 0.00 9 1019.8
20260502223503 85 100 8.0 12.0 0.00 0.00 0.00 9 1019.9
20260502223003 85 108 5.0 13.0 0.00 0.00 0.00 9 1019.9
20260502222504 85 103 7.0 12.0 0.00 0.00 0.00 9 1020.0
20260502222003 85 123 9.0 14.0 0.00 0.00 0.00 9 1020.1
20260502221504 85 119 9.0 15.0 0.00 0.00 0.00 9 1020.1
20260502221004 85 133 3.0 7.0 0.00 0.00 0.00 9 1020.3
20260502220504 85 107 4.0 10.0 0.00 0.00 0.00 10 1020.4
20260502220004 85 114 7.0 16.0 0.00 0.00 0.00 9 1020.1
20260502215503 85 75 6.0 15.0 0.00 0.00 0.00 9 1020.5
20260502215003 84 117 8.0 15.0 0.00 0.00 0.00 9 1020.4
20260502214504 84 128 10.0 14.0 0.00 0.00 0.00 9 1020.4
20260502213503 84 113 8.0 20.0 0.00 0.00 0.00 9 1020.5
20260502213004 84 110 9.0 14.0 0.00 0.00 0.00 10 1020.5
20260502212504 84 63 3.0 12.0 0.00 0.00 0.00 9 1020.7
20260502212004 85 131 13.0 20.0 0.00 0.00 0.00 9 1020.7
20260502211504 85 114 6.0 12.0 0.00 0.00 0.00 9 1020.8
20260502211003 85 117 9.0 20.0 0.00 0.00 0.00 9 1020.7
20260502210503 84 97 6.0 13.0 0.00 0.00 0.00 9 1020.9
20260502210004 84 113 7.0 12.0 0.00 0.00 0.00 9 1021.0
20260502205503 84 112 8.0 13.0 0.00 0.00 0.00 9 1021.2
20260502205005 84 123 6.0 12.0 0.00 0.00 0.00 9 1021.3
20260502204004 85 102 6.0 12.0 0.00 0.00 0.00 9 1021.5
20260502203504 84 139 7.0 12.0 0.00 0.00 0.00 9 1021.6
20260502203004 84 86 7.0 12.0 0.00 0.00 0.00 9 1021.6
20260502202504 83 98 6.0 10.0 0.00 0.00 0.00 9 1021.7
20260502202004 84 158 7.0 17.0 0.00 0.00 0.00 9 1021.9
20260502201504 83 109 9.0 13.0 0.00 0.00 0.00 9 1022.1
20260502201003 84 74 3.0 14.0 0.00 0.00 0.00 9 1022.2
20260502200503 84 115 8.0 12.0 0.00 0.00 0.00 9 1022.2
20260502200003 84 121 5.0 15.0 0.00 0.00 0.00 9 1022.3
20260502195503 84 118 6.0 17.0 0.00 0.00 0.00 9 1022.3
20260502195004 83 86 7.0 12.0 0.00 0.00 0.00 9 1022.3
20260502194503 83 125 7.0 16.0 0.00 0.00 0.00 9 1022.4
20260502193504 83 134 5.0 10.0 0.00 0.00 0.00 9 1022.5
20260502192504 83 87 3.0 9.0 0.00 0.00 0.00 10 1022.6
20260502191504 82 97 4.0 8.0 0.00 0.00 0.00 9 1022.7
20260502191005 82 110 4.0 12.0 0.00 0.00 0.00 9 1022.9
20260502190503 83 126 5.0 13.0 0.00 0.00 0.00 9 1022.8
20260502190005 82 92 6.0 10.0 0.00 0.00 0.00 9 1022.8
20260502185504 82 97 1.0 10.0 0.00 0.00 0.00 9 1022.9
20260502184505 82 85 3.0 10.0 0.00 0.00 0.00 9 1023.0
20260502184003 82 100 5.0 12.0 0.00 0.00 0.00 9 1023.2
20260502183504 82 113 6.0 12.0 0.00 0.00 0.00 10 1023.2
20260502183003 82 115 4.0 12.0 0.00 0.00 0.00 9 1023.3
20260502182504 82 104 5.0 12.0 0.00 0.00 0.00 9 1023.2
20260502181503 81 108 6.0 12.0 0.00 0.00 0.00 10 1023.3
20260502181003 81 108 6.0 12.0 0.00 0.00 0.00 10 1023.2
20260502180504 81 122 8.0 13.0 0.00 0.00 0.00 10 1023.3
20260502170504 79 122 5.0 12.0 0.00 0.00 0.00 11 1023.5
20260502164003 78 138 1.0 7.0 0.00 0.00 0.00 12 1023.7
20260502163504 78 99 3.0 6.0 0.00 0.00 0.00 11 1023.7
20260502163004 78 103 1.0 3.0 0.00 0.00 0.00 11 1023.8
20260502162504 78 115 2.0 7.0 0.00 0.00 0.00 12 1023.7
20260502162004 78 137 2.0 7.0 0.00 0.00 0.00 12 1023.7
20260502161004 78 130 1.0 3.0 0.00 0.00 0.00 12 1023.7
20260502152004 75 136 1.0 8.0 0.00 0.00 0.00 13 1023.4
20260502151504 74 146 1.0 3.0 0.00 0.00 0.00 14 1023.4
20260502151003 74 158 0.0 3.0 0.00 0.00 0.00 14 1023.4
20260502150504 73 165 4.0 6.0 0.00 0.00 0.00 14 1023.4
20260502130504 58 245 0.0 0.0 0.00 0.00 0.00 27 1022.2
20260502123004 57 244 0.0 0.0 0.00 0.00 0.00 28 1021.8
20260502122504 57 243 0.0 0.0 0.00 0.00 0.00 28 1022.1
20260502122003 57 243 0.0 0.0 0.00 0.00 0.00 27 1022.1
20260502121504 58 246 0.0 0.0 0.00 0.00 0.00 27 1022.1
20260502121003 58 247 0.0 0.0 0.00 0.00 0.00 27 1022.1
20260502120504 58 245 0.0 3.0 0.00 0.00 0.00 27 1022.1
20260502115504 59 240 0.0 0.0 0.00 0.00 0.00 27 1022.1
20260502115004 59 244 0.0 0.0 0.00 0.00 0.00 27 1022.1
20260502114504 59 239 0.0 0.0 0.00 0.00 0.00 26 1022.0
20260502114004 59 233 0.0 0.0 0.00 0.00 0.00 26 1022.1
20260502113504 59 239 0.0 0.0 0.00 0.00 0.00 26 1022.1
20260502113004 60 238 0.0 0.0 0.00 0.00 0.00 26 1022.1
20260502112504 60 239 0.0 0.0 0.00 0.00 0.00 26 1022.1
20260502112003 60 243 0.0 0.0 0.00 0.00 0.00 26 1022.1
20260502111503 60 240 0.0 0.0 0.00 0.00 0.00 26 1022.0
20260502111004 59 235 0.0 0.0 0.00 0.00 0.00 26 1022.2
20260502110504 59 236 0.0 0.0 0.00 0.00 0.00 27 1022.2
20260502110004 59 241 0.0 0.0 0.00 0.00 0.00 27 1022.1
20260502105504 58 246 0.0 0.0 0.00 0.00 0.00 27 1022.1
20260502105004 59 245 0.0 0.0 0.00 0.00 0.00 26 1022.0
20260502104503 59 243 0.0 0.0 0.00 0.00 0.00 26 1022.0
20260502103503 59 241 0.0 0.0 0.00 0.00 0.00 26 1022.0
20260502103004 59 242 0.0 0.0 0.00 0.00 0.00 26 1022.0
20260502101504 59 240 0.0 0.0 0.00 0.00 0.00 26 1021.9
20260502101003 59 240 0.0 0.0 0.00 0.00 0.00 26 1022.0
20260502100504 59 240 0.0 0.0 0.00 0.00 0.00 26 1022.0
20260502091504 60 249 0.0 0.0 0.00 0.00 0.00 25 1021.9
20260502090503 60 249 0.0 0.0 0.00 0.00 0.00 25 1022.0
20260502071004 64 219 0.0 0.0 0.00 0.00 0.00 22 1022.1
20260502070003 64 231 0.0 0.0 0.00 0.00 0.00 22 1021.9
20260502065503 64 221 0.0 0.0 0.00 0.00 0.00 22 1021.9
20260502064504 65 242 0.0 0.0 0.00 0.00 0.00 22 1022.0
20260502064004 65 236 0.0 0.0 0.00 0.00 0.00 21 1021.9
20260502063503 66 232 0.0 0.0 0.00 0.00 0.00 21 1021.8
20260502062504 66 230 0.0 0.0 0.00 0.00 0.00 21 1021.9
20260502062004 66 227 0.0 0.0 0.00 0.00 0.00 21 1021.9
20260502061504 66 230 0.0 0.0 0.00 0.00 0.00 20 1021.8
20260502060504 67 223 0.0 0.0 0.00 0.00 0.00 20 1021.9
20260502060003 67 227 0.0 0.0 0.00 0.00 0.00 20 1021.9
20260502055504 67 221 0.0 0.0 0.00 0.00 0.00 20 1021.9
20260502055004 67 215 0.0 0.0 0.00 0.00 0.00 20 1021.9
20260502054504 67 220 0.0 0.0 0.00 0.00 0.00 20 1022.0
20260502054004 66 226 0.0 0.0 0.00 0.00 0.00 20 1021.9
20260502053004 67 234 0.0 0.0 0.00 0.00 0.00 20 1021.9
20260502052503 67 237 1.0 3.0 0.00 0.00 0.00 20 1021.9
20260502051004 66 227 0.0 0.0 0.00 0.00 0.00 20 1021.7
20260502050503 66 233 0.0 0.0 0.00 0.00 0.00 20 1021.7
20260502050003 66 237 0.0 0.0 0.00 0.00 0.00 20 1021.7
20260502045504 65 238 0.0 0.0 0.00 0.00 0.00 20 1021.7
20260502045004 65 276 0.0 0.0 0.00 0.00 0.00 20 1021.6
20260502044504 65 288 0.0 0.0 0.00 0.00 0.00 20 1021.6
20260502044004 65 288 0.0 0.0 0.00 0.00 0.00 20 1021.6
20260502043505 64 326 0.0 0.0 0.00 0.00 0.00 20 1021.5
20260502043004 65 9 0.0 0.0 0.00 0.00 0.00 20 1021.4
20260502042504 65 17 0.0 0.0 0.00 0.00 0.00 20 1021.5
20260502041004 66 19 0.0 0.0 0.00 0.00 0.00 20 1021.2
20260502040504 65 19 0.0 0.0 0.00 0.00 0.00 20 1021.0
20260502035504 65 20 0.0 0.0 0.00 0.00 0.00 20 1021.0
20260502035003 66 20 0.0 0.0 0.00 0.00 0.00 18 1020.9
20260502034504 68 28 0.0 0.0 0.00 0.00 0.00 18 1020.7
20260502034004 69 28 0.0 0.0 0.00 0.00 0.00 17 1020.6
20260502033503 70 28 0.0 0.0 0.00 0.00 0.00 18 1020.5
20260502032503 71 28 0.0 0.0 0.00 0.00 0.00 18 1020.3
20260502032005 71 28 0.0 0.0 0.00 0.00 0.00 17 1020.4
20260502031504 72 28 0.0 0.0 0.00 0.00 0.00 17 1020.3
20260502030512 73 28 0.0 0.0 0.00 0.00 0.00 16 1020.2
20260502030041 73 28 0.0 0.0 0.00 0.00 0.00 16 1020.3
20260502025504 74 28 0.0 0.0 0.00 0.00 0.00 16 1020.2
20260502025004 75 28 0.0 0.0 0.00 0.00 0.00 16 1020.1
20260502024504 75 28 0.0 0.0 0.00 0.00 0.00 16 1020.1
20260502024004 76 28 0.0 0.0 0.00 0.00 0.00 15 1020.1
20260502023504 76 27 0.0 0.0 0.00 0.00 0.00 15 1020.1
20260502023004 77 28 0.0 0.0 0.00 0.00 0.00 15 1020.0
20260502022004 78 34 0.0 0.0 0.00 0.00 0.00 15 1020.0
20260502021004 79 39 3.0 8.0 0.00 0.00 0.00 14 1019.9
20260502020004 80 46 2.0 7.0 0.00 0.00 0.00 14 1019.8
20260502015505 80 40 6.0 10.0 0.00 0.00 0.00 14 1019.8